[keps] orb07179.amsat

Ray Hoad r.hoad at att.net
Thu Jun 28 19:31:41 PDT 2007


SB KEPS @ AMSAT  $ORB07179.O
Orbital Elements  07179.OSCAR

HR AMSAT ORBITAL ELEMENTS FOR OSCAR SATELLITES
FROM WA5QGD FORT WORTH,TX June 28, 2007
Send SUBSCRIBE KEPS/UNSUBSCRIBE KEPS to majordomo at amsat.org only
BID: ORB07179.O
TO ALL RADIO AMATEURS BT

Satellite: AO-07
Catalog number: 07530
Epoch time:      07178.59613174
Element set:    0912
Inclination:      101.5126 deg
RA of node:       216.2977 deg
Eccentricity:    0.0011769
Arg of perigee:   235.1477 deg
Mean anomaly:     124.8491 deg
Mean motion:   12.53572487 rev/day
Decay rate:       -2.8e-07 rev/day^2
Epoch rev:           49242
Checksum:              312

Satellite: AO-10
Catalog number: 14129
Epoch time:      07178.25664924
Element set:    0393
Inclination:      026.4172 deg
RA of node:       269.8639 deg
Eccentricity:    0.6064258
Arg of perigee:   034.0314 deg
Mean anomaly:     352.9759 deg
Mean motion:   02.05868743 rev/day
Decay rate:       -4.5e-07 rev/day^2
Epoch rev:           18077
Checksum:              332

Satellite: UO-11
Catalog number: 14781
Epoch time:      07179.48460705
Element set:     407
Inclination:      098.1883 deg
RA of node:       202.4028 deg
Eccentricity:    0.0009694
Arg of perigee:   129.7156 deg
Mean anomaly:     230.4912 deg
Mean motion:   14.79560610 rev/day
Decay rate:      -2.49e-06 rev/day^2
Epoch rev:           25140
Checksum:              304

Satellite: RS-15
Catalog number: 23439
Epoch time:      07178.89187363
Element set:    0075
Inclination:      064.8197 deg
RA of node:       349.6086 deg
Eccentricity:    0.0158921
Arg of perigee:   188.7894 deg
Mean anomaly:     171.0241 deg
Mean motion:   11.27551844 rev/day
Decay rate:       -3.9e-07 rev/day^2
Epoch rev:           51490
Checksum:              346

Satellite: FO-29
Catalog number: 24278
Epoch time:      07178.92759970
Element set:    0543
Inclination:      098.5522 deg
RA of node:       137.1321 deg
Eccentricity:    0.0351596
Arg of perigee:   055.4887 deg
Mean anomaly:     307.8921 deg
Mean motion:   13.52931059 rev/day
Decay rate:       -6.2e-07 rev/day^2
Epoch rev:           53635
Checksum:              342

Satellite: SO-33
Catalog number: 25509
Epoch time:      07178.40070102
Element set:     959
Inclination:      031.4281 deg
RA of node:       168.0007 deg
Eccentricity:    0.0355124
Arg of perigee:   156.7196 deg
Mean anomaly:     204.9947 deg
Mean motion:   14.28169953 rev/day
Decay rate:       2.06e-06 rev/day^2
Epoch rev:           45271
Checksum:              303

Satellite: AO-40
Catalog number: 26609
Epoch time:      07177.89233415
Element set:     894
Inclination:      005.7348 deg
RA of node:       137.0601 deg
Eccentricity:    0.7984100
Arg of perigee:   333.7846 deg
Mean anomaly:     001.5834 deg
Mean motion:   01.25587613 rev/day
Decay rate:      -2.91e-06 rev/day^2
Epoch rev:            3056
Checksum:              309

Satellite: VO-52
Catalog number: 28650
Epoch time:      07178.78171796
Element set:    0663
Inclination:      097.8314 deg
RA of node:       249.2628 deg
Eccentricity:    0.0026537
Arg of perigee:   217.1519 deg
Mean anomaly:     142.7829 deg
Mean motion:   14.81331573 rev/day
Decay rate:       3.85e-06 rev/day^2
Epoch rev:           11598
Checksum:              345

Satellite: PO-63
Catalog number: 29712
Epoch time:      07179.53760825
Element set:     495
Inclination:      097.9204 deg
RA of node:       238.5396 deg
Eccentricity:    0.0015782
Arg of perigee:   092.0589 deg
Mean anomaly:     268.2432 deg
Mean motion:   14.79741017 rev/day
Decay rate:       5.19e-06 rev/day^2
Epoch rev:            2501
Checksum:              332

/EX
SB KEPS @ AMSAT  $ORB07179.D
Orbital Elements  07179.MICROS

HR AMSAT ORBITAL ELEMENTS FOR THE MICROSATS
FROM WA5QGD FORT WORTH,TX June 28, 2007
Send SUBSCRIBE KEPS/UNSUBSCRIBE KEPS to majordomo at amsat.org only
BID: ORB07179.D
TO ALL RADIO AMATEURS BT

Satellite: AO-16
Catalog number: 20439
Epoch time:      07178.57327592
Element set:    0068
Inclination:      098.1951 deg
RA of node:       172.5565 deg
Eccentricity:    0.0011065
Arg of perigee:   150.7657 deg
Mean anomaly:     209.4152 deg
Mean motion:   14.31763513 rev/day
Decay rate:       -5.0e-08 rev/day^2
Epoch rev:           91003
Checksum:              298

Satellite: LO-19
Catalog number: 20442
Epoch time:      07179.44846885
Element set:     995
Inclination:      098.1791 deg
RA of node:       182.7190 deg
Eccentricity:    0.0012244
Arg of perigee:   147.7242 deg
Mean anomaly:     212.4723 deg
Mean motion:   14.32004469 rev/day
Decay rate:        5.1e-07 rev/day^2
Epoch rev:           91030
Checksum:              303

Satellite: AO-27
Catalog number: 22825
Epoch time:      07178.48937857
Element set:     717
Inclination:      098.3297 deg
RA of node:       147.9211 deg
Eccentricity:    0.0007653
Arg of perigee:   228.1286 deg
Mean anomaly:     131.9238 deg
Mean motion:   14.29211556 rev/day
Decay rate:       -3.4e-07 rev/day^2
Epoch rev:           71696
Checksum:              341

Satellite: IO-26
Catalog number: 22826
Epoch time:      07178.81491661
Element set:    0415
Inclination:      098.3243 deg
RA of node:       149.2995 deg
Eccentricity:    0.0007983
Arg of perigee:   225.9018 deg
Mean anomaly:     134.1512 deg
Mean motion:   14.29458244 rev/day
Decay rate:        1.8e-07 rev/day^2
Epoch rev:           71709
Checksum:              323

Satellite: PO-28
Catalog number: 22829
Epoch time:      07178.48587895
Element set:     692
Inclination:      098.3121 deg
RA of node:       150.1496 deg
Eccentricity:    0.0009081
Arg of perigee:   197.8594 deg
Mean anomaly:     162.2258 deg
Mean motion:   14.30158459 rev/day
Decay rate:       -4.0e-08 rev/day^2
Epoch rev:           71728
Checksum:              346

Satellite: GO-32
Catalog number: 25397
Epoch time:      07178.70632596
Element set:    0336
Inclination:      098.4132 deg
RA of node:       225.4598 deg
Eccentricity:    0.0001272
Arg of perigee:   156.8473 deg
Mean anomaly:     203.2763 deg
Mean motion:   14.23127128 rev/day
Decay rate:       -8.9e-07 rev/day^2
Epoch rev:           46565
Checksum:              321

Satellite: MO-46
Catalog number: 26548
Epoch time:      07178.77014034
Element set:     830
Inclination:      064.5542 deg
RA of node:       149.9245 deg
Eccentricity:    0.0014053
Arg of perigee:   196.8272 deg
Mean anomaly:     163.2388 deg
Mean motion:   14.83154156 rev/day
Decay rate:        2.0e-07 rev/day^2
Epoch rev:           36510
Checksum:              300

Satellite: NO-44
Catalog number: 26931
Epoch time:      07178.86313097
Element set:    0622
Inclination:      067.0504 deg
RA of node:       119.9882 deg
Eccentricity:    0.0007741
Arg of perigee:   265.0566 deg
Mean anomaly:     094.9694 deg
Mean motion:   14.29488028 rev/day
Decay rate:       -9.3e-07 rev/day^2
Epoch rev:           29962
Checksum:              347

Satellite: SO-50
Catalog number: 27607
Epoch time:      07178.79490944
Element set:    0346
Inclination:      064.5595 deg
RA of node:       052.8287 deg
Eccentricity:    0.0055279
Arg of perigee:   357.0682 deg
Mean anomaly:     003.0080 deg
Mean motion:   14.71268844 rev/day
Decay rate:       -5.2e-07 rev/day^2
Epoch rev:           24268
Checksum:              331

Satellite: CO-55
Catalog number: 27844
Epoch time:      07178.66986530
Element set:      60
Inclination:      098.7171 deg
RA of node:       186.8268 deg
Eccentricity:    0.0011089
Arg of perigee:   063.3216 deg
Mean anomaly:     296.9075 deg
Mean motion:   14.20518439 rev/day
Decay rate:        2.6e-07 rev/day^2
Epoch rev:           20696
Checksum:              336

Satellite: CO-57
Catalog number: 27848
Epoch time:      07178.48044132
Element set:    0021
Inclination:      098.7169 deg
RA of node:       185.8320 deg
Eccentricity:    0.0010775
Arg of perigee:   065.7288 deg
Mean anomaly:     294.5036 deg
Mean motion:   14.20336801 rev/day
Decay rate:        3.7e-07 rev/day^2
Epoch rev:           20691
Checksum:              312

Satellite: AO-51
Catalog number: 28375
Epoch time:      07179.61204090
Element set:     849
Inclination:      098.1110 deg
RA of node:       218.3411 deg
Eccentricity:    0.0083911
Arg of perigee:   147.1699 deg
Mean anomaly:     213.4740 deg
Mean motion:   14.40572596 rev/day
Decay rate:        2.2e-07 rev/day^2
Epoch rev:           15735
Checksum:              297

Satellite: CO-56
Catalog number: 28941
Epoch time:      07178.97926447
Element set:    0498
Inclination:      098.1276 deg
RA of node:       241.2800 deg
Eccentricity:    0.0223700
Arg of perigee:   234.5169 deg
Mean anomaly:     123.5043 deg
Mean motion:   15.40131247 rev/day
Decay rate:      7.030e-05 rev/day^2
Epoch rev:           07509
Checksum:              307

Satellite: HO-59
Catalog number: 29484
Epoch time:      07179.32890766
Element set:     453
Inclination:      098.2817 deg
RA of node:       230.8003 deg
Eccentricity:    0.0204735
Arg of perigee:   225.6562 deg
Mean anomaly:     132.7780 deg
Mean motion:   15.51706862 rev/day
Decay rate:     1.8192e-04 rev/day^2
Epoch rev:            4280
Checksum:              330

Satellite: NO-60
Catalog number: 29661
Epoch time:      07150.05824307
Element set:     300
Inclination:      051.6186 deg
RA of node:       176.5045 deg
Eccentricity:    0.0007204
Arg of perigee:   190.7749 deg
Mean anomaly:     188.7342 deg
Mean motion:   16.52052832 rev/day
Decay rate:  1.3324117e-01 rev/day^2
Epoch rev:            2554
Checksum:              290

Satellite: NO-61
Catalog number: 29664
Epoch time:      07179.47419574
Element set:     251
Inclination:      051.6322 deg
RA of node:       032.8967 deg
Eccentricity:    0.0011986
Arg of perigee:   033.7396 deg
Mean anomaly:     326.4416 deg
Mean motion:   15.92327970 rev/day
Decay rate:     2.6638e-04 rev/day^2
Epoch rev:            2995
Checksum:              346

